• Processing (Info)

  • MPEC 2019-D22 : 2012 CU59

    The following Minor Planet Electronic Circular may be linked-to from your own Web pages, but must not otherwise be redistributed electronically.

    A form allowing access to any MPEC is at the bottom of this page.


    Read MPEC 2019-D21 Read MPEC 2019-D23


    M.P.E.C. 2019-D22                                Issued 2019 Feb. 23, 20:48 UT
    
         The Minor Planet Electronic Circulars contain information on unusual
             minor planets and routine data on comets.  They are published
        on behalf of Division F of the International Astronomical Union by the
              Minor Planet Center, Smithsonian Astrophysical Observatory,
                              Cambridge, MA 02138, U.S.A.
    
                 Prepared using the Tamkin Foundation Computer Network
    
                                  MPC@CFA.HARVARD.EDU
                URL https://www.minorplanetcenter.net/    ISSN 1523-6714
    
                                       2012 CU59
    
    Observations:
         K12C59U* C2012 02 14.52011009 22 09.915+15 22 40.06         22.7 GVED022F51
         K12C59U  C2012 02 14.53351009 22 08.896+15 22 49.51         22.4 GVED022F51
         K12C59U  C2012 02 15.34485809 21 08.381+15 32 12.78         21.7 GVED022F51
         K12C59U  C2012 02 15.35937809 21 07.225+15 32 23.21         22.4 GVED022F51
         K12C59U  C2012 02 15.38712609 21 05.026+15 32 42.72         22.1 GVED022F51
         K12C59U  C2012 02 22.42389309 12 09.866+16 54 47.04         21.7 GVED022F51
         K12C59U  C2016 05 17.57956520 46 37.055-04 20 33.75         21.7 GVED022F51
         K12C59U  C2016 05 17.59584420 46 39.052-04 20 28.66         21.6 GVED022F51
         K12C59U  C2016 06 07.51352 21 21 00.809-03 34 36.87         21.3 wLED022F51
         K12C59U  C2016 06 07.52578821 21 01.550-03 34 38.04         21.4 GVED022F51
         K12C59U  C2016 06 07.53806 21 21 02.292-03 34 38.84         21.5 wLED022F51
         K12C59U  C2016 06 07.55034 21 21 03.029-03 34 39.83         21.4 wLED022F51
         K12C59U KC2016 06 16.55073021 28 45.210-04 01 06.76         20.9 GVED022F51
         K12C59U  C2016 07 07.48473 21 30 04.125-07 04 25.90         21.2 wLED022F51
         K12C59U  C2016 07 07.50938 21 30 03.319-07 04 44.55         21.2 wLED022F51
         K12C59U  C2016 07 07.52177 21 30 02.902-07 04 53.98         21.2 wLED022F51
         K12C59U  C2016 07 14.33579 21 26 03.56 -08 36 35.6          20.8 VqED022G96
         K12C59U  C2016 07 14.34328 21 26 03.24 -08 36 42.5          20.5 VqED022G96
         K12C59U  C2016 07 14.35076 21 26 02.83 -08 36 47.8          20.8 VqED022G96
         K12C59U  C2016 07 14.35824 21 26 02.55 -08 36 54.7          20.6 VqED022G96
         K12C59U  C2016 08 03.40204 21 08 13.008-13 35 23.69         21.1 wLED022F51
         K12C59U  C2016 08 03.41362 21 08 12.290-13 35 33.71         20.9 wLED022F51
         K12C59U  C2016 08 03.42526 21 08 11.574-13 35 43.72         21.1 wLED022F51
         K12C59U  C2016 08 03.43690 21 08 10.854-13 35 53.73         21.1 wLED022F51
         K12C59U  C2016 08 27.32340620 52 03.611-18 03 30.78         22.1 GVED022F51
         K12C59U  C2016 08 27.34824720 52 03.034-18 03 42.26         21.9 GVED022F51
         K12C59U  C2016 08 27.36066020 52 02.736-18 03 48.02         22.4 GVED022F51
    
    Observer details:
    F51 Pan-STARRS 1, Haleakala.  Observers J. Bulger, K. Chambers, T. Lowe,
        E. Magnier, A. Schultz, M. Willman, B. Gibson, T. Goggia, N. Primak.
        Measurers S. Chastel, M. Huber, Y. Ramanjooloo, R. Wainscoat, R. Weryk,
        K. Chambers, L. Denneau, H. Flewelling, E. Lilly, E. Magnier, C. Waters.
        1.8-m Ritchey-Chretien + CCD.
    G96 Mt. Lemmon Survey.  Observer A. D. Grauer.  Measurers E. J. Christensen,
        D. C. Fuls, A. R. Gibbs, A. D. Grauer, J. A. Johnson, R. A. Kowalski,
        S. M. Larson, G. J. Leonard, R. G. Matheny, R. L. Seaman, F. C. Shelly.
        1.5-m reflector + 10K CCD.
    
    Orbital elements:
    2012 CU59                                                Earth MOID = 0.2594 AU
    Epoch 2019 Apr. 27.0 TT = JDT 2458600.5                 MPC
    M 289.15583              (2000.0)            P               Q
    n   0.26181348     Peri.   94.21079     -0.55545583     +0.82826088
    a   2.4199592      Node   141.74290     -0.80239409     -0.51055843
    e   0.4898673      Incl.    6.84920     -0.21824880     -0.23089827
    P   3.76           H   20.5           G   0.15           U   2
    Residuals in seconds of arc
    120214 F51  0.3-  0.2-    160607 F51  0.0   0.1-    160714 G96  0.4-  0.3+
    120214 F51  0.2+  0.1+    160607 F51  0.0   0.1+    160714 G96  0.7+  0.2-
    120215 F51  0.1+  0.2-    160607 F51  0.1-  0.0     160803 F51  0.1+  0.1+
    120215 F51  0.0   0.1+    160616 F51  0.1-  0.1-    160803 F51  0.0   0.0
    120215 F51  0.0   0.1+    160707 F51  0.1-  0.1+    160803 F51  0.0   0.0
    120222 F51  0.1-  0.0     160707 F51  0.1+  0.1+    160803 F51  0.0   0.0
    160517 F51  0.1+  0.1-    160707 F51  0.1+  0.0     160827 F51  0.1-  0.1-
    160517 F51  0.2-  0.0     160714 G96  0.2-  0.3-    160827 F51  0.0   0.0
    160607 F51  0.1+  0.2+    160714 G96  0.4+  0.8-    160827 F51  0.1-  0.1-
    
    Ephemeris:
    2012 CU59                a,e,i = 2.42, 0.49, 7                   q = 1.2345
    Date    TT    R. A. (2000) Decl.     Delta      r     Elong.  Phase     V
    2019 01 24    05 22 31.6 +16 12 08   2.2093  3.0055   137.1    12.9    25.4
    ...
    2019 02 08    05 15 13.2 +16 47 00   2.3231  2.9472   120.4    16.8    25.6
    ...
    2019 02 16    05 13 51.2 +17 08 42   2.3966  2.9149   112.0    18.3    25.7
    ...
    2019 02 22    05 13 58.5 +17 26 00   2.4553  2.8902   106.1    19.2    25.7
    2019 02 23    05 14 05.3 +17 28 57   2.4653  2.8860   105.1    19.3    25.7
    2019 02 24    05 14 13.6 +17 31 56   2.4754  2.8818   104.2    19.4    25.7
    ...
    2019 03 02    05 15 36.0 +17 50 02   2.5364  2.8565    98.5    20.1    25.8
    ...
    2019 03 10    05 18 48.4 +18 14 37   2.6187  2.8219    91.3    20.6    25.9
    ...
    2019 03 25    05 28 39.5 +19 00 00   2.7689  2.7549    78.8    20.8    25.9
    
    A. U. Tomatic                (C) Copyright 2019 MPC           M.P.E.C. 2019-D22
    

    Read MPEC 2019-D21 Read MPEC 2019-D23


    MPEC number:

    Enter an MPEC number in one of the following forms:

    • 1997-B01 (the full form)
    • J97B01 (the packed version of the full form)
    • B01 (the abbreviated form)